Погода в Игарке

Погода в Игарке : погода сейчас, прогноз погоды и архив. Всё, что Вы хотите узнать о погоде в Игарке!

Поиск расширенной информации на нашем сайте:

Другие новости

Новости СМИ2

Главная страница сайта

Новости сайта

03.07.2017

Напоминаем, что на нашем специализированном сайте Метеоцентр.Азия вы можете получить высокодетализированные автоматические прогнозы погоды по пунктам России, СНГ и мира в авиационном формате (включающие направление и скорость ветра, видимость, явления погоды, количество и форму облачности, нижнюю и верхнюю границу облачности).

Рекомендуем: Доставка канапе и фуршетных блюд по Москве catering.su.

Погода в Игарке - сегодня

Время (UTC), дата Ветер
(°,м/с) 
Видим.   Явления Облачность Т
(°С)
Тd
(°С)
f(%) Тe
(°С)
Pmin
(гПа)
dP
(гПа)
Po
(мм)
O2
(г/м3)
Тmin Tmax R s Состояние
почвы
21 18.04.18 160 (Ю) 4000 м  слаб. снег  9/6 300 м средняя 
[Sc|As op]
-11.8 -13.1 90 -16  1007.2  -0.9  753  318           
00 19.04.18 170 (Ю) 10 км  слаб. снег  9/4 600 м средняя, верхняя 
[Sc|Ac trans|Cs]
-12.3 -13.6 90 -17  1006.6  -0.6  752  319  -13.6    104  равномерный
сухой снег
100% 
03 19.04.18 160 (Ю) 20000 м  {снег}  9/3 600 м средняя, верхняя 
[Sc|Ac trans|Cs]
-10.4 -14.8 70 -15  1005.7  -0.9  752  316           
12 19.04.18 160 (Ю) 6{13}  10 км  слаб. снег  9/3 600 м средняя 
[Sc|As op]
-6.8 -9.7 80 -12  1004.1  0.5  750  311    -6  0.0     
21 19.04.18 130 (ЮВ) 10 км  слаб. снег  9/6 600 м средняя 
[Sc|As op]
-6.6 -8.2 88 -11  1000.6  -1.8  748  310           
00 20.04.18 140 (ЮВ) 2000 м  слаб. ливневой снег  9/8 600 м кучево-дожд., средняя 
[Cb cap|Ac cuf]
-5.5 -6.9 90 -9  999.6  -1  747  308  -7.4    102  равномерный
сухой снег
100% 
03 20.04.18 140 (ЮВ) 4000 м  слаб. ливневой снег  10/10 300 м кучево-дожд. 
[Cb cap]
-4.2 -5.4 91 -7  999.5  -0.1  747  306           
06 20.04.18 150 (ЮВ) 4000 м  слаб. ливневой снег  10/10 300 м кучево-дожд. 
[Cb cap]
-2.9 -3.9 93 -6  999.6  0.2  747  305           
09 20.04.18 280 (З) 4000 м  слаб. ливневой снег  10/10 300 м кучево-дожд. 
[Cb cap]
-3.6 -4.7 92 -6  999.9  0.2  747  306           
12 20.04.18 180 (Ю) 20000 м  {ливн. осадки}  3/3 600 м кучево-дожд., средняя 
[Cb cap|Ac cuf]
-4 -5.9 87 -5  1000  0.1  747  306    -2.3     
15 20.04.18 020 (С) 10 км    9/9 600 м 
[Sc]
-8.9 -10.9 85 -11  999.5  -0.5  747  312           
18 20.04.18 340 (С) 10 км  слаб. ливневой снег  9/9 600 м кучево-дожд. 
[Cb cap]
-6 -7.5 89 -9  996.5  -2.9  745  308           
21 20.04.18 330 (СЗ) н/о    н/о 
-8.1 -9.2 92 -12  998.1  -2.5  743  309           
00 21.04.18 310 (СЗ) 10 км  слаб. ливневой снег  9/9 600 м кучево-дожд. 
[Cb cap]
-8.4 -9.9 89 -13  994  0.1  743  309  -10.4    110  равномерный
сухой снег
100% 
03 21.04.18 290 (З) 20000 м  {ливн. осадки}  8/4 1000 м средняя 
[Sc diur, vesp|Ac cuf]
-6.6 -11.2 70 -11  995.5  1.6  744  308           
06 21.04.18 270 (З) 20000 м  {ливн. осадки}  6/0 средняя, верхняя 
[Ac trans|Ci fib]
-4.4 -11.4 58 -7  997  1.5  745  306           
09 21.04.18 130 (ЮВ) 20000 м    9/9 600 м 
[Sc]
-4.1 -10.9 59 -5  997.3  0.3  745  306           
12 21.04.18 300 (СЗ) 20000 м    9/8 600 м средняя 
[Sc|Ac trans]
-4.5 -8.8 72 -6  997.8  0.5  746  306    -2.2  0.0     
15 21.04.18 320 (СЗ) 10 км  {снег}  9/3 1000 м средняя, верхняя 
[Sc|Ac trans|Cs]
-10.8 -13.6 80 -14  999.2  1.3  747  314           
18 21.04.18 тихо ()   10 км  {снег}  9/0 средняя, верхняя 
[Ac trans|Ci fib]
-17.6 -18.8 90 -18  1000.2  0.8  747  323           
21 21.04.18 080 (В) 10 км  слаб. снег  9/0 средняя, верхняя 
[Ac trans|Cs]
-20.6 -21.8 90 -21  1001.3  1.1  748  328           
00 22.04.18 тихо ()   20000 м  в посл. час снег  6/0 средняя, верхняя 
[Ac trans|Ci fib]
-22.6 -23.8 90 -23  1002.2  0.8  749  331  -25.7    0.4  109  равномерный
сухой снег
100% 
03 22.04.18 200 (Ю) 10 км  слаб. снег  9/3 600 м средняя, верхняя 
[Sc|Ac trans|Cs]
-13.6 -16.3 80 -14  1002.2  0.2  749  319           
06 22.04.18 200 (Ю) 10 км  слаб. ливневой снег  10/8 300 м кучево-дожд., средняя 
[Cb cap|Ac cuf]
-9.8 -12.4 81 -13  1006.2  749  314           
09 22.04.18 260 (З) 4000 м  слаб. ливневой снег  9/8 300 м кучево-дожд., средняя 
[Cb cap|Ac cuf]
-8.4 -11.2 80 -11  1002.1  0.1  749  312           
Время (UTC), дата Ветер
(°,м/с) 
Видим.   Явления Облачность Т
(°С)
Тd
(°С)
f(%) Тe
(°С)
Pmin
(гПа)
dP
(гПа)
Po
(мм)
O2
(г/м3)
Тmin Tmax R s Состояние
почвы

Для получения пояснительной информации подведите курсор к названию столбца.

ПОГОДА в Игарке - архив

Всё, что Вы хотите узнать о погоде в Игарке - удобно и подробно!

Выберите нужную дату (начиная с 1 января 2015* года) и нажмите кнопку "Найти".
Будут отображены архивные сводки погоды по пункту Игарка, начиная с указанной даты.


Отображать данные в формате CSV (для использования в таблицах Excel)


Внимание! Наш архив погоды предназначен исключительно для личного некоммерческого использования в познавательных целях. Если Вам необходимы официальные справки о состоянии погоды (для производственных, юридических, коммерческих и т.п. целей), обращайтесь в органы Росгидромета.

*Примечание: данная дата относится к архиву по метеостанциям СССР (Россия, СНГ, Балтия).
Архив по метеостанциям Зарубежной Европы и Азии (кроме Китая) хранится 10 дней, по другим регионам земного шара (Китай, Африка, Америка, Австралия, Океания) - 1 день.

Игарка - район местоположения метеостанции


Название, широта, долгота, высота метеостанции:
Игарка 67.5°ш. 86.4°д. 25 м над ур. моря [Российская Федерация]

Дополнительная информация

В oтличие oт бoльшинства пoгoдных сайтoв мы публикуем пoдрoбную метеoинфoрмацию в детальнoм прoфессиoнальнoм фoрмате.

Характеристики температуры и влажнoсти вoздуха измеряются на высoте 2 м в тени вдали oт зданий и деревьев.
Скoрoсть ветра измеряется на высoте 10 м (на урoвне рoста челoвека скoрoсть ветра ниже в 1.5-2 раза). Если метеoстанция нахoдится в гoрoде или в лесу, тo скoрoсть ветра занижена на 2-4 м/с пo сравнению с oткрытым местoм. Скoрoсть ветра над акватoриями крупных рек и oзёр, а также на вершинах хoлмoв на 2-5 м/с выше, чем в oбычных услoвиях.
Атмoсфернoе давление в разных тoчках местнoсти мoжет значительнo oтличаться oт давления на метеoстанции, в зависимoсти oт услoвий рельефа (при пoдъёме на 10 м давление пoнижается примернo на 1 мм рт.ст.).